Location: Unspecified
(0.0000°N, 0.0000°E)
Time: 16:21:08
(UTC+00:00)

A-11 Canister half - Pass Details

Date: 20 November 2019
Orbit: 1515 x 1685 km, 47.2° (Epoch: 12 December)

Event Time Altitude Azimuth Distance (km) Brightness Sun altitude
Rises 00:27:26 0° 347° (NNW) 4,879 - -67.9°
Reaches altitude 10° 00:31:53 10° 3° (N) 3,867 - -67.4°
Maximum altitude 00:38:28 20° 46° (NE) 3,123 - -66.5°
Drops below altitude 10° 00:44:52 10° 89° (E) 3,782 - -65.6°
Exits shadow 00:47:25 - 99° (E) 4,332 11.6 -65.2°
Sets 00:49:05 0° 105° (ESE) 4,739 11.8 -65.0°
